Location: Degersen
(52.2871°N, 9.5716°E)
Time: 23:57:07
(UTC+00:00)

ATLAS 2AS CENTAUR R/B - Pass Details

Date: 20 January 2026
Orbit: 1050 x 1161 km, 63.7° (Epoch: 18 February)

Event Time Altitude Azimuth Distance (km) Brightness Sun altitude
Exits shadow 03:37:34 72° 65° (ENE) 1,104 2.7 -33.3°
Drops below altitude 10° 03:44:00 10° 126° (SE) 2,866 5.4 -32.3°
Sets 03:46:38 0° 128° (SE) 3,823 6.2 -31.9°
